Weather History for Fort Polk, LA

Change the Weather History Date:

Monday, December 24, 2012

  Actual Average (KPOE) Record (KPOE)
Temperature  
Mean Temperature 58 °F -  
Max Temperature 70 °F 56 °F 73 °F (2008)
Min Temperature 45 °F 36 °F 28 °F (1998)
Degree Days  
Heating Degree Days 8    
Growing Degree Days 8 (Base 50)    
Moisture  
Dew Point 50 °F    
Average Humidity 73    
Maximum Humidity 94    
Minimum Humidity 25    
Precipitation  
Precipitation 0.00 in - - ()
Sea Level Pressure  
Sea Level Pressure 29.88 in    
Wind  
Wind Speed 3 mph (WNW)    
Max Wind Speed 6 mph    
Max Gust Speed -    
Visibility 10 miles    
Events      
Averages and records for this station are not official NWS values.
T = Trace of Precipitation, MM = Missing Value Source: NWS Daily Summary

Daily Weather History Graph

Daily Weather History Graph

Search for Another Location

Airport:

Trip Planner

Search our weather history database for the weather conditions in past years. The results will help you decide how hot, cold, wet, or windy it might be!

Date:

Astronomy

Dec. 24, 2012 Rise Set
Actual Time 7:09 AM CST 5:16 PM CST
Civil Twilight 6:42 AM CST 5:43 PM CST
Nautical Twilight 6:12 AM CST 6:13 PM CST
Astronomical Twilight 5:42 AM CST 6:43 PM CST
Moon 2:39 PM CST (12/24) 3:53 AM CST (12/24)
Length of Visible Light 11h 00m
Length of Day
10h 06m
Waxing Gibbous, 88% of the Moon is Illuminated
Dec 24
Waxing Gibbous
Dec 28
Full
Jan 4
Last Quarter
Jan 11
New
Jan 18
First Quarter

Hourly Weather History & Observations

Time (CST) Temp. Dew Point Humidity Pressure Visibility Wind Dir Wind Speed Gust Speed Precip Events Conditions
12:56 AM 66.0 °F 63.0 °F 90% 29.85 in 10.0 mi Variable 4.6 mph - N/A   Overcast
1:20 AM 66.2 °F 62.6 °F 88% 29.86 in 10.0 mi Variable 5.8 mph - N/A   Overcast
1:48 AM 66.2 °F 62.6 °F 88% 29.86 in 10.0 mi Variable 5.8 mph - N/A   Overcast
1:56 AM 66.0 °F 63.0 °F 90% 29.86 in 10.0 mi Variable 5.8 mph - N/A   Overcast
2:49 AM 64.4 °F 62.6 °F 94% 29.86 in 10.0 mi Calm Calm - N/A   Overcast
2:56 AM 64.9 °F 62.1 °F 90% 29.86 in 10.0 mi Variable 3.5 mph - N/A   Overcast
3:56 AM 64.0 °F 62.1 °F 93% 29.86 in 10.0 mi Calm Calm - N/A   Overcast
4:22 AM 64.4 °F 60.8 °F 88% 29.86 in 10.0 mi WSW 5.8 mph - N/A   Partly Cloudy
4:56 AM 63.0 °F 60.1 °F 90% 29.86 in 10.0 mi Variable 3.5 mph - N/A   Clear
5:56 AM 62.1 °F 60.1 °F 93% 29.88 in 10.0 mi West 5.8 mph - N/A   Mostly Cloudy
6:31 AM 62.6 °F 59.0 °F 88% 29.90 in 10.0 mi Variable 3.5 mph - N/A   Mostly Cloudy
6:51 AM 60.8 °F 57.2 °F 88% 29.90 in 10.0 mi Variable 3.5 mph - N/A   Mostly Cloudy
6:56 AM 60.1 °F 57.0 °F 90% 29.90 in 10.0 mi Calm Calm - N/A   Mostly Cloudy
7:03 AM 60.8 °F 57.2 °F 88% 29.91 in 10.0 mi Variable 3.5 mph - N/A   Partly Cloudy
7:17 AM 59.0 °F 55.4 °F 88% 29.91 in 10.0 mi Variable 4.6 mph - N/A   Scattered Clouds
7:27 AM 57.2 °F 53.6 °F 88% 29.92 in 10.0 mi Variable 4.6 mph - N/A   Mostly Cloudy
7:56 AM 57.0 °F 51.1 °F 81% 29.93 in 10.0 mi Calm Calm - N/A   Mostly Cloudy
8:11 AM 57.2 °F 51.8 °F 82% 29.93 in 10.0 mi Calm Calm - N/A   Mostly Cloudy
8:24 AM 57.2 °F 48.2 °F 72% 29.93 in 10.0 mi Variable 3.5 mph - N/A   Scattered Clouds
8:56 AM 59.0 °F 45.0 °F 60% 29.93 in 10.0 mi Calm Calm - N/A   Clear
9:56 AM 61.0 °F 37.9 °F 42% 29.95 in 10.0 mi Calm Calm - N/A   Clear
10:56 AM 63.0 °F 36.0 °F 37% 29.95 in 10.0 mi Variable 3.5 mph - N/A   Clear
11:56 AM 64.9 °F 35.1 °F 33% 29.93 in 10.0 mi Variable 3.5 mph - N/A   Clear
12:56 PM 66.9 °F 36.0 °F 32% 29.88 in 10.0 mi Calm Calm - N/A   Clear
1:56 PM 69.1 °F 34.0 °F 27% 29.86 in 10.0 mi Calm Calm - N/A   Clear
2:56 PM 70.0 °F 35.1 °F 28% 29.84 in 10.0 mi NNW 3.5 mph - N/A   Clear
3:56 PM 70.0 °F 32.0 °F 25% 29.85 in 10.0 mi Calm Calm - N/A   Clear
4:56 PM 60.1 °F 43.0 °F 53% 29.84 in 10.0 mi Calm Calm - N/A   Clear
5:56 PM 51.1 °F 44.1 °F 77% 29.84 in 10.0 mi Calm Calm - N/A   Clear
6:56 PM 48.0 °F 43.0 °F 83% 29.84 in 10.0 mi Calm Calm - N/A   Clear
7:56 PM 46.9 °F 42.1 °F 83% 29.84 in 10.0 mi Calm Calm - N/A   Clear
8:56 PM 46.0 °F 41.0 °F 83% 29.83 in 10.0 mi Calm Calm - N/A   Clear
9:56 PM 45.0 °F 42.1 °F 90% 29.82 in 10.0 mi Calm Calm - N/A   Clear
10:56 PM 46.0 °F 42.1 °F 86% 29.82 in 10.0 mi Calm Calm - N/A   Clear
11:56 PM 52.0 °F 39.0 °F 61% 29.81 in 10.0 mi East 3.5 mph - N/A   Clear